Weather History for Iron Mountain, MI

Change the Weather History Date:

Sunday, December 8, 2013

  Actual Average Record
Temperature  
Mean Temperature 0 °F -  
Max Temperature 9 °F 28 °F 42 °F (1963)
Min Temperature -7 °F 11 °F -17 °F (1976)
Degree Days  
Heating Degree Days 64    
Moisture  
Dew Point -2 °F    
Average Humidity 75    
Maximum Humidity 87    
Minimum Humidity 58    
Precipitation  
Precipitation 0.00 in - - ()
Sea Level Pressure  
Sea Level Pressure 30.28 in    
Wind  
Wind Speed 3 mph (NNW)    
Max Wind Speed 6 mph    
Max Gust Speed -    
Visibility 5 miles    
Events Snow    
Averages and records for this station are not official NWS values.
T = Trace of Precipitation, MM = Missing Value Source: NWS Daily Summary

Daily Weather History Graph

Daily Weather History Graph

Search for Another Location

Airport:

Trip Planner

Search our weather history database for the weather conditions in past years. The results will help you decide how hot, cold, wet, or windy it might be!

Date:

Astronomy

Dec. 08, 2013 Rise Set
Actual Time 7:21 AM CST 4:07 PM CST
Civil Twilight 6:46 AM CST 4:42 PM CST
Nautical Twilight 6:09 AM CST 5:19 PM CST
Astronomical Twilight 5:33 AM CST 5:55 PM CST
Moon 11:26 AM CST (12/8) 11:13 PM CST (12/8)
Length of Visible Light 9h 55m
Length of Day
8h 46m
Waxing Crescent, 40% of the Moon is Illuminated
Dec 8
Waxing Crescent
Dec 9
First Quarter
Dec 17
Full
Dec 25
Last Quarter
Jan 1
New

Hourly Weather History & Observations

Time (CST) Temp. Windchill Dew Point Humidity Pressure Visibility Wind Dir Wind Speed Gust Speed Precip Events Conditions
12:54 AM -6.0 °F -16.9 °F -13.0 °F 72% 30.57 in 10.0 mi NNW 4.6 mph - N/A   Clear
1:54 AM -6.0 °F -16.9 °F -13.0 °F 72% 30.58 in 10.0 mi WNW 4.6 mph - N/A   Clear
2:54 AM -7.1 °F -15.9 °F -13.0 °F 75% 30.57 in 10.0 mi NW 3.5 mph - N/A   Clear
3:54 AM -6.0 °F -16.9 °F -13.0 °F 72% 30.57 in 10.0 mi West 4.6 mph - N/A   Clear
4:54 AM -6.0 °F -14.7 °F -13.0 °F 72% 30.57 in 10.0 mi West 3.5 mph - N/A   Clear
5:54 AM -6.0 °F - -13.0 °F 72% 30.56 in 10.0 mi Calm Calm - N/A   Clear
6:54 AM -6.0 °F - -13.0 °F 72% 30.54 in 10.0 mi Calm Calm - N/A   Scattered Clouds
7:54 AM -5.1 °F -15.8 °F -11.9 °F 72% 30.54 in 10.0 mi West 4.6 mph - N/A   Overcast
8:54 AM -2.9 °F - -11.0 °F 68% 30.54 in 10.0 mi Calm Calm - N/A   Overcast
9:54 AM -0.9 °F - -9.0 °F 69% 30.53 in 10.0 mi Calm Calm - N/A   Overcast
10:54 AM 1.9 °F - -8.0 °F 63% 30.49 in 10.0 mi Calm Calm - N/A   Mostly Cloudy
11:54 AM 3.9 °F - -7.1 °F 60% 30.44 in 10.0 mi Calm Calm - N/A   Overcast
12:54 PM 6.1 °F -0.9 °F -4.0 °F 63% 30.42 in 10.0 mi South 3.5 mph - N/A   Overcast
1:54 PM 8.1 °F - -4.0 °F 58% 30.37 in 10.0 mi Calm Calm - N/A   Overcast
2:28 PM 8.6 °F - -2.2 °F 62% 30.24 in 2.0 mi Calm Calm - 0.00 in Snow Light Snow
2:36 PM 8.6 °F 2.0 °F -0.4 °F 67% 30.24 in 1.2 mi ESE 3.5 mph - 0.00 in Snow Light Snow
2:54 PM 8.1 °F - -0.0 °F 70% 30.35 in 2.0 mi Calm Calm - 0.00 in Snow Light Snow
3:05 PM 8.6 °F 2.0 °F -0.4 °F 67% 30.23 in 1.5 mi East 3.5 mph - 0.00 in Snow Light Snow
3:17 PM 8.6 °F - 1.4 °F 73% 30.23 in 2.0 mi Calm Calm - 0.00 in Snow Light Snow
3:32 PM 8.6 °F - 1.4 °F 73% 30.23 in 1.2 mi Calm Calm - 0.00 in Snow Light Snow
3:49 PM 8.6 °F 2.0 °F 1.4 °F 73% 30.22 in 1.2 mi ENE 3.5 mph - 0.00 in Snow Light Snow
3:54 PM 8.1 °F - 1.9 °F 76% 30.32 in 1.2 mi Calm Calm - 0.00 in Snow Light Snow
4:54 PM 8.1 °F - 3.0 °F 80% 30.29 in 1.5 mi Calm Calm - 0.00 in Snow Light Snow
5:54 PM 8.1 °F 1.4 °F 3.0 °F 80% 30.27 in 1.2 mi NE 3.5 mph - 0.00 in Snow Light Snow
6:18 PM 8.6 °F 2.0 °F 3.2 °F 79% 30.15 in 2.0 mi Variable 3.5 mph - 0.00 in Snow Light Snow
6:45 PM 8.6 °F 0.1 °F 3.2 °F 79% 30.13 in 1.8 mi North 4.6 mph - 0.00 in Snow Light Snow
6:54 PM 8.1 °F -0.5 °F 3.0 °F 80% 30.22 in 2.5 mi North 4.6 mph - 0.00 in Snow Light Snow
7:02 PM 8.6 °F -1.3 °F 3.2 °F 79% 30.12 in 3.0 mi North 5.8 mph - 0.00 in Snow Light Snow
7:28 PM 8.6 °F -1.3 °F 3.2 °F 79% 30.11 in 2.5 mi North 5.8 mph - 0.00 in Snow Light Snow
7:54 PM 8.1 °F 1.4 °F 3.9 °F 83% 30.19 in 1.8 mi North 3.5 mph - 0.00 in Snow Light Snow
8:04 PM 8.6 °F 2.0 °F 3.2 °F 79% 30.08 in 2.0 mi North 3.5 mph - 0.00 in Snow Light Snow
8:32 PM 8.6 °F 0.1 °F 3.2 °F 79% 30.07 in 4.0 mi NNW 4.6 mph - 0.00 in Snow Light Snow
8:50 PM 6.8 °F - 3.2 °F 85% 30.06 in 4.0 mi Calm Calm - 0.00 in Snow Light Snow
8:54 PM 7.0 °F - 3.9 °F 87% 30.16 in 4.0 mi Calm Calm - 0.00 in Snow Light Snow
9:54 PM 8.1 °F -0.5 °F 3.9 °F 83% 30.12 in 7.0 mi NW 4.6 mph - 0.00 in   Overcast
10:22 PM 8.6 °F 0.1 °F 3.2 °F 79% 30.01 in 2.0 mi NW 4.6 mph - 0.00 in Snow Light Snow
10:37 PM 8.6 °F 0.1 °F 3.2 °F 79% 30.00 in 3.0 mi NW 4.6 mph - 0.00 in Snow Light Snow
10:54 PM 8.1 °F -0.5 °F 3.9 °F 83% 30.09 in 4.0 mi NW 4.6 mph - 0.00 in Snow Light Snow
11:27 PM 8.6 °F 2.0 °F 3.2 °F 79% 29.97 in 2.5 mi NNW 3.5 mph - 0.00 in Snow Light Snow
11:51 PM 8.6 °F 2.0 °F 5.0 °F 85% 29.95 in 3.0 mi NNW 3.5 mph - 0.00 in Snow Light Snow
11:54 PM 9.0 °F 0.6 °F 5.0 °F 84% 30.04 in 2.5 mi NW 4.6 mph - 0.00 in Snow Light Snow